Location: Unspecified
(0.0000°N, 0.0000°E)
Time: 23:47:20
(UTC+00:00)

Vanguard 2 - Pass Details

Date: 01 October 2020
Orbit: 554 x 2937 km, 32.9° (Epoch: 28 October)

Event Time Altitude Azimuth Distance (km) Brightness Sun altitude
Rises 00:40:09 0° 238° (WSW) 6,776 - -77.0°
Reaches altitude 10° 00:44:51 10° 239° (WSW) 5,669 - -75.8°
Maximum altitude 01:01:39 76° 322° (NW) 2,292 - -71.7°
Drops below altitude 10° 01:12:26 10° 48° (NE) 3,817 - -69.1°
Sets 01:14:59 0° 50° (NE) 4,533 - -68.4°
